Tiempo cada hora Dahanu

Hoy, 30 Noviembre, Lunes

Tiempo Temperatura Precipitaciones Viento Presión Humedad
00:00 +27°C° 0 mm 2 mps 760 mmHg 72%
01:00 +27°C° 0 mm 1 mps 760 mmHg 72%
02:00 +26°C° 0 mm 1 mps 759 mmHg 73%
03:00 +26°C° 0 mm 2 mps 759 mmHg 73%
04:00 +26°C° 0 mm 2 mps 759 mmHg 73%
05:00 +26°C° 0 mm 1 mps 759 mmHg 74%
06:00 +27°C° 0 mm 1 mps 760 mmHg 71%
07:00 +27°C° 0 mm 1 mps 760 mmHg 68%
08:00 +28°C° 0 mm 1 mps 761 mmHg 65%
09:00 +30°C° 0 mm 1 mps 761 mmHg 60%
10:00 +31°C° 0 mm 1 mps 761 mmHg 56%
11:00 +31°C° 0 mm 0 mps 761 mmHg 52%
12:00 +33°C° 0 mm 1 mps 760 mmHg 52%
13:00 +34°C° 0 mm 2 mps 759 mmHg 53%
14:00 +34°C° 0 mm 3 mps 759 mmHg 53%
15:00 +33°C° 0 mm 3 mps 759 mmHg 57%
16:00 +31°C° 0 mm 3 mps 759 mmHg 62%
17:00 +30°C° 0 mm 3 mps 759 mmHg 67%
18:00 +29°C° 0 mm 2 mps 759 mmHg 69%
19:00 +29°C° 0 mm 2 mps 760 mmHg 70%
20:00 +28°C° 0 mm 2 mps 760 mmHg 72%
21:00 +28°C° 0 mm 2 mps 760 mmHg 71%
22:00 +28°C° 0 mm 2 mps 760 mmHg 71%
23:00 +28°C° 0 mm 2 mps 760 mmHg 70%

Mañana, 1 Diciembre, Martes

Tiempo Temperatura Precipitaciones Viento Presión Humedad
00:00 +28°C° 0 mm 2 mps 760 mmHg 70%
01:00 +27°C° 0 mm 2 mps 760 mmHg 70%
02:00 +27°C° 0 mm 2 mps 759 mmHg 69%
03:00 +27°C° 0 mm 2 mps 759 mmHg 70%
04:00 +27°C° 0 mm 2 mps 759 mmHg 70%
05:00 +26°C° 0 mm 2 mps 759 mmHg 70%
06:00 +27°C° 0 mm 2 mps 760 mmHg 67%
07:00 +28°C° 0 mm 2 mps 760 mmHg 65%
08:00 +28°C° 0 mm 1 mps 761 mmHg 63%
09:00 +30°C° 0 mm 1 mps 761 mmHg 58%
10:00 +32°C° 0 mm 1 mps 761 mmHg 53%
11:00 +34°C° 0 mm 1 mps 761 mmHg 48%
12:00 +35°C° 0 mm 2 mps 760 mmHg 48%
13:00 +35°C° 0 mm 3 mps 759 mmHg 48%
14:00 +35°C° 0 mm 4 mps 758 mmHg 49%
15:00 +34°C° 0 mm 4 mps 758 mmHg 53%
16:00 +32°C° 0 mm 4 mps 758 mmHg 57%
17:00 +30°C° 0 mm 4 mps 758 mmHg 62%
18:00 +30°C° 0 mm 4 mps 759 mmHg 63%
19:00 +29°C° 0 mm 3 mps 759 mmHg 65%
20:00 +28°C° 0 mm 3 mps 760 mmHg 66%
21:00 +28°C° 0 mm 3 mps 760 mmHg 65%
22:00 +28°C° 0 mm 3 mps 760 mmHg 63%
23:00 +28°C° 0 mm 3 mps 760 mmHg 62%

Pasado mañana, 2 Diciembre, Miércoles

Tiempo Temperatura Precipitaciones Viento Presión Humedad
00:00 +27°C° 0 mm 3 mps 760 mmHg 61%
01:00 +27°C° 0 mm 3 mps 759 mmHg 60%
02:00 +27°C° 0 mm 3 mps 759 mmHg 59%
03:00 +27°C° 0 mm 2 mps 759 mmHg 59%
04:00 +27°C° 0 mm 2 mps 759 mmHg 59%
05:00 +26°C° 0 mm 2 mps 759 mmHg 60%
06:00 +27°C° 0 mm 2 mps 759 mmHg 59%
07:00 +28°C° 0 mm 1 mps 760 mmHg 58%
08:00 +28°C° 0 mm 1 mps 761 mmHg 57%
09:00 +30°C° 0 mm 1 mps 760 mmHg 53%
10:00 +32°C° 0 mm 1 mps 760 mmHg 48%
11:00 +34°C° 0 mm 1 mps 760 mmHg 43%
12:00 +35°C° 0 mm 2 mps 759 mmHg 43%
13:00 +35°C° 0 mm 3 mps 759 mmHg 43%
14:00 +35°C° 0 mm 3 mps 758 mmHg 42%
15:00 +33°C° 0 mm 4 mps 757 mmHg 48%
16:00 +32°C° 0 mm 4 mps 757 mmHg 54%
17:00 +29°C° 0 mm 4 mps 757 mmHg 60%
18:00 +29°C° 0 mm 3 mps 757 mmHg 61%
19:00 +28°C° 0 mm 2 mps 758 mmHg 62%
20:00 +27°C° 0 mm 2 mps 759 mmHg 63%
21:00 +27°C° 0 mm 2 mps 759 mmHg 63%
22:00 +26°C° 0 mm 2 mps 759 mmHg 63%
23:00 +26°C° 0 mm 2 mps 759 mmHg 63%

3 Diciembre, Jueves

Tiempo Temperatura Precipitaciones Viento Presión Humedad
00:00 +26°C° 0 mm 2 mps 758 mmHg 61%
01:00 +25°C° 0 mm 2 mps 758 mmHg 59%
02:00 +25°C° 0 mm 2 mps 758 mmHg 57%
03:00 +25°C° 0 mm 2 mps 758 mmHg 56%
04:00 +25°C° 0 mm 1 mps 758 mmHg 55%
05:00 +24°C° 0 mm 1 mps 758 mmHg 54%
06:00 +25°C° 0 mm 1 mps 758 mmHg 52%
07:00 +26°C° 0 mm 1 mps 759 mmHg 50%
08:00 +27°C° 0 mm 2 mps 760 mmHg 48%
09:00 +29°C° 0 mm 1 mps 760 mmHg 44%
10:00 +31°C° 0 mm 1 mps 760 mmHg 40%
11:00 +31°C° 0 mm 0 mps 760 mmHg 36%
12:00 +33°C° 0 mm 1 mps 759 mmHg 37%
13:00 +34°C° 0 mm 2 mps 758 mmHg 38%
14:00 +34°C° 0 mm 3 mps 757 mmHg 39%
15:00 +31°C° 0 mm 3 mps 757 mmHg 45%
16:00 +30°C° 0 mm 3 mps 757 mmHg 52%
17:00 +29°C° 0 mm 3 mps 757 mmHg 58%
18:00 +28°C° 0 mm 2 mps 758 mmHg 60%
19:00 +27°C° 0 mm 1 mps 758 mmHg 62%
20:00 +26°C° 0 mm 1 mps 759 mmHg 64%
21:00 +26°C° 0 mm 1 mps 759 mmHg 62%
22:00 +26°C° 0 mm 1 mps 759 mmHg 60%
23:00 +25°C° 0 mm 1 mps 759 mmHg 58%

4 Diciembre, Viernes

Tiempo Temperatura Precipitaciones Viento Presión Humedad
00:00 +25°C° 0 mm 1 mps 758 mmHg 58%
01:00 +25°C° 0 mm 1 mps 758 mmHg 57%
02:00 +25°C° 0 mm 1 mps 757 mmHg 56%
03:00 +24°C° 0 mm 1 mps 757 mmHg 56%
04:00 +24°C° 0 mm 1 mps 757 mmHg 55%
05:00 +24°C° 0 mm 1 mps 757 mmHg 54%
06:00 +25°C° 0 mm 2 mps 758 mmHg 52%
07:00 +25°C° 0 mm 2 mps 758 mmHg 50%
08:00 +26°C° 0 mm 2 mps 759 mmHg 48%
09:00 +28°C° 0 mm 1 mps 759 mmHg 43%
10:00 +30°C° 0 mm 1 mps 759 mmHg 38%
11:00 +32°C° 0 mm 1 mps 759 mmHg 34%
12:00 +32°C° 0 mm 2 mps 758 mmHg 35%
13:00 +32°C° 0 mm 2 mps 757 mmHg 37%
14:00 +33°C° 0 mm 3 mps 756 mmHg 38%
15:00 +31°C° 0 mm 3 mps 756 mmHg 43%
16:00 +30°C° 0 mm 3 mps 756 mmHg 48%
17:00 +28°C° 0 mm 2 mps 756 mmHg 53%
18:00 +28°C° 0 mm 2 mps 757 mmHg 54%
19:00 +27°C° 0 mm 2 mps 757 mmHg 55%
20:00 +26°C° 0 mm 2 mps 758 mmHg 56%
21:00 +26°C° 0 mm 1 mps 758 mmHg 55%
22:00 +26°C° 0 mm 1 mps 758 mmHg 53%
23:00 +26°C° 0 mm 1 mps 758 mmHg 52%

5 Diciembre, Sábado

Tiempo Temperatura Precipitaciones Viento Presión Humedad
00:00 +25°C° 0 mm 1 mps 758 mmHg 52%
01:00 +25°C° 0 mm 1 mps 757 mmHg 52%
02:00 +25°C° 0 mm 1 mps 757 mmHg 52%
03:00 +25°C° 0 mm 1 mps 757 mmHg 52%
04:00 +24°C° 0 mm 1 mps 757 mmHg 51%
05:00 +24°C° 0 mm 1 mps 757 mmHg 51%
06:00 +25°C° 0 mm 2 mps 758 mmHg 50%
07:00 +25°C° 0 mm 2 mps 758 mmHg 49%
08:00 +26°C° 0 mm 2 mps 759 mmHg 47%
09:00 +28°C° 0 mm 2 mps 759 mmHg 44%
10:00 +30°C° 0 mm 2 mps 759 mmHg 40%
11:00 +32°C° 0 mm 2 mps 759 mmHg 36%
12:00 +34°C° 0 mm 2 mps 758 mmHg 35%
13:00 +34°C° 0 mm 3 mps 757 mmHg 35%
14:00 +34°C° 0 mm 3 mps 756 mmHg 35%
15:00 +33°C° 0 mm 3 mps 756 mmHg 40%
16:00 +30°C° 0 mm 3 mps 756 mmHg 45%
17:00 +29°C° 0 mm 3 mps 756 mmHg 51%
18:00 +28°C° 0 mm 3 mps 757 mmHg 52%
19:00 +28°C° 0 mm 2 mps 757 mmHg 52%
20:00 +27°C° 0 mm 2 mps 758 mmHg 53%
21:00 +27°C° 0 mm 2 mps 758 mmHg 53%
22:00 +26°C° 0 mm 2 mps 758 mmHg 54%
23:00 +26°C° 0 mm 2 mps 758 mmHg 54%
Mostrar más

Necesitamos Su Consentimiento

Meteoprog y nuestros Proveedores de Servicios pueden almacenar y acceder a sus datos personales como cookies, identificadores de dispositivo u otras tecnologías similares de su dispositivo y procesar dichos datos para personalizar contenido y anuncios, además de ofrecer funciones de redes sociales y analizar el tráfico.

  • Almacenar y/o acceder a información en su dispositivo

    Se puede almacenar o acceder a cookies, identificadores de dispositivo u otra información de su dispositivo para los fines anteriormente indicados.

  • Anuncios y contenido personalizados, medición de anuncios y contenido, percepciones del público, y desarrollo de productos

    Los anuncios y el contenido pueden personalizarse en base a su perfil. Se pueden añadir más datos para personalizar mejor los anuncios y contenidos. Se puede medir el rendimiento de los anuncios y contenidos. Se puede obtener la percepción sobre el público que ha visto los anuncios y contenidos. Dichos datos pueden usarse para desarrollar o mejorar la experiencia del usuario, sistemas y software.

Al hacer clic en ‘Estoy De Acuerdo’ usted permitirá el uso de las cookies, identificadores de dispositivo, balizas web u otras tecnologías similares indicadas. Su configuración puede cambiarse desde el navegador de su dispositivo.

Para ciertos fines, los intereses legítimos pueden ser considerados por encima del consentimiento. Puede leer más sobre ello en nuestra Política de Privacidad y Cookies.